Location: Vancouver
(49.2500°N, 123.1330°W)
Time: 13:27:11
(UTC-08:00)

Iridium 35 - Visible Passes

Search period start: 17 December 2014 00:00
Search period end: 27 December 2014 00:00
Orbit: 776 x 779 km, 86.4° (Epoch: 17 December)

Date Brightness Start Highest point End Pass type
(mag) Time Alt. Az. Time Alt. Az. Time Alt. Az.
17 Dec 7.2 04:30:34 16° SSE 04:30:34 16° SSE 04:31:37 10° SSE visible
17 Dec 5.1 17:22:26 10° S 17:27:39 83° W 17:32:54 10° N visible
17 Dec 7.9 19:06:52 10° W 19:09:16 13° WNW 19:11:41 10° NW visible
18 Dec 5.1 16:49:04 10° SSE 16:54:09 59° E 16:59:17 10° N visible
18 Dec 7.4 18:31:20 10° WSW 18:35:18 22° WNW 18:39:18 10° NNW visible
19 Dec 6.6 17:56:43 10° SW 18:01:29 35° WNW 18:06:16 10° N visible
20 Dec 5.6 17:22:39 10° SSW 17:27:47 60° W 17:32:57 10° N visible
21 Dec 5.0 16:49:01 10° S 16:54:13 81° E 16:59:27 10° N visible
21 Dec 7.7 18:32:28 10° WSW 18:35:38 16° WNW 18:38:50 10° NNW visible
22 Dec 7.1 17:57:23 10° SW 18:01:44 26° WNW 18:06:06 10° NNW visible
23 Dec 6.3 17:23:00 10° SSW 17:27:57 43° W 17:32:56 10° N visible
24 Dec 5.3 16:49:06 10° S 16:54:18 74° W 16:59:32 10° N visible
24 Dec 7.9 18:34:11 10° W 18:36:01 12° WNW 18:37:52 10° NW visible
25 Dec 7.5 17:58:17 10° WSW 18:02:01 20° WNW 18:05:46 10° NNW visible
26 Dec 6.8 17:23:32 10° SW 17:28:09 32° WNW 17:32:49 10° NNW visible
